Location: Pedholt
(56.0260°N, 10.2097°E)
Time: 21:23:48
(UTC+00:00)

Tiros 1 - Pass Details

Date: 07 August 2021
Orbit: 630 x 663 km, 48.4° (Epoch: 19 September)

Event Time Altitude Azimuth Distance (km) Brightness Sun altitude
Rises 17:15:21 0° 247° (WSW) 2,989 11.6 14.7°
Reaches altitude 10° 17:17:53 10° 237° (WSW) 2,074 10.7 14.4°
Maximum altitude 17:22:08 33° 175° (S) 1,113 8.4 13.8°
Drops below altitude 10° 17:26:22 10° 112° (ESE) 2,059 9.2 13.2°
Sets 17:28:52 0° 103° (ESE) 2,964 9.9 12.8°
